GFSSE_con_3kmhel_000.txt.gz
Helicity
2 13 25 26 52 32 13 32 8 -3 -7 -20 -10 11 27 33 60 82 128 131 141 130 83 27 23 25 32 34 48 72 79 80 63 44 32 45 65 62 49 37 19 29 50
10 26 9 37 52 72 51 40 31 49 32 -4 -1 12 14 44 162 253 273 204 161 167 117 97 25 18 30 48 50 52 54 54 48 32 26 26 32 27 33 63 40 23 29
21 24 26 30 44 18 4 25 42 54 101 85 74 46 57 93 178 207 256 51 -16 33 109 33 46 11 21 34 47 41 44 38 30 13 1 11 34 9 20 54 78 58 46
30 55 28 34 24 10 24 51 68 92 97 89 65 89 53 93 132 127 126 139 49 60 32 7 22 27 16 20 30 41 39 33 25 14 7 5 66 17 9 56 79 69 65
14 23 24 26 13 28 27 30 19 36 55 62 91 101 82 71 74 45 62 109 95 26 22 52 269 66 4 4 9 18 21 31 26 21 10 28 47 19 10 49 52 58 44
-13 26 12 18 41 45 50 52 50 43 49 51 54 83 120 37 65 57 39 19 57 95 80 129 155 114 77 43 20 -13 -5 22 28 21 27 60 68 42 23 34 32 30 37
25 12 35 60 64 61 56 60 55 50 46 52 54 67 97 98 62 34 49 57 68 72 74 113 218 290 -12 30 35 40 47 44 40 29 37 56 59 61 26 26 45 39 53
23 33 70 62 47 42 46 44 42 45 46 51 47 48 79 77 98 151 176 183 213 166 152 135 125 97 76 77 90 86 91 75 52 50 58 47 106 71 31 32 47 38 60
70 73 66 63 25 18 16 29 33 34 41 44 51 46 56 78 131 134 162 210 227 227 234 230 200 136 139 132 139 104 86 105 99 72 76 136 52 62 37 44 62 113 123
60 108 83 34 43 18 21 30 47 40 52 54 62 62 57 101 91 97 110 150 173 186 195 253 302 291 201 164 111 129 99 102 94 93 104 88 77 55 40 36 55 89 114
100 76 94 92 117 92 49 87 70 49 40 32 41 39 22 27 22 61 109 84 109 129 119 161 195 205 227 243 224 129 143 99 93 107 116 110 76 50 41 38 41 70 102
124 108 94 66 95 75 46 115 120 99 57 33 48 24 25 77 83 83 84 83 75 77 117 171 186 146 178 194 231 220 177 152 102 96 87 74 76 46 49 55 61 59 100
148 106 85 74 76 84 148 95 68 30 40 60 76 86 58 51 53 52 60 60 70 73 52 60 63 87 187 319 215 140 160 153 200 149 125 98 70 51 32 48 75 91 107
69 111 105 90 102 93 86 147 156 139 104 126 89 80 63 49 59 58 74 62 51 44 43 68 75 74 66 141 111 70 51 58 136 128 101 80 66 52 50 65 71 124 130
58 98 133 117 79 60 105 133 152 160 159 124 116 105 110 113 104 71 95 71 73 65 63 68 71 79 77 68 92 56 -90 61 80 119 174 108 92 74 67 56 59 94 127
72 137 134 92 69 80 113 127 141 168 151 157 161 145 127 151 126 139 129 127 100 102 93 84 89 78 86 89 78 77 42 35 40 64 67 80 60 57 72 53 49 61 75
111 127 141 98 119 112 170 153 127 154 167 200 209 201 198 172 160 170 183 181 164 102 87 80 77 87 90 92 68 56 38 66 75 66 42 132 178 68 42 72 81 92 95
167 195 153 140 197 154 167 193 164 220 148 171 199 197 182 175 164 152 163 171 133 99 102 103 100 93 87 94 95 54 40 41 46 48 75 123 124 86 77 43 65 44 37
199 206 176 190 173 185 191 182 243 310 184 189 253 200 177 177 161 152 174 169 126 112 100 92 104 98 104 103 106 95 51 29 35 48 48 73 98 112 97 70 39 54 69
224 203 188 208 183 208 210 191 295 251 171 304 239 247 227 209 173 155 155 126 85 79 100 103 78 104 107 94 90 81 82 100 102 83 61 75 95 75 87 93 102 93 58
227 207 152 148 166 226 199 254 220 244 187 207 163 257 258 195 155 139 148 190 136 123 136 74 83 92 99 129 129 61 43 125 122 117 135 100 81 95 122 126 127 91 103
160 120 135 102 128 218 185 197 160 172 170 206 210 273 309 181 189 179 132 139 128 153 110 79 60 81 82 96 126 104 9 9 143 180 183 186 85 56 77 123 127 105 104
166 146 82 87 94 182 220 128 198 236 197 255 288 310 279 162 165 144 152 161 147 134 103 96 75 57 67 90 102 100 76 30 -12 86 99 134 137 145 107 54 69 121 118
134 174 132 50 93 113 235 263 142 262 305 204 162 173 173 212 139 137 165 164 195 218 178 124 96 98 93 83 99 94 104 103 38 -51 26 80 99 96 59 63 76 83 92
126 162 190 143 108 113 144 275 351 279 281 248 226 232 232 255 302 357 323 315 209 232 245 178 156 114 101 100 93 89 88 77 85 59 -44 -40 9 61 83 85 91 71 -10
139 162 176 209 184 179 192 195 344 409 326 328 292 363 425 409 411 442 424 383 324 277 242 219 173 150 140 132 127 109 92 87 79 77 56 18 -5 -1 20 28 39 53 43

GFSSE_con_3kmhel_003.txt.gz
Helicity
-22 13 27 33 46 57 59 57 74 53 18 22 30 44 68 145 202 230 271 362 357 211 158 135 143 91 43 25 27 36 58 72 68 49 30 22 30 38 73 110 79 74 52
-2 17 27 31 45 60 45 56 52 89 108 41 47 54 82 143 179 205 198 202 139 56 33 19 68 51 56 46 31 39 39 41 48 35 17 22 28 45 65 94 61 51 60
14 -5 6 14 23 31 52 50 77 96 137 139 82 69 110 117 142 157 138 100 116 193 105 72 87 91 57 80 46 40 36 40 35 35 25 25 42 49 46 62 65 63 46
25 -3 1 25 46 34 17 31 44 74 118 126 96 89 86 88 99 113 112 113 98 112 88 80 134 79 153 105 96 21 10 11 16 20 26 29 46 31 32 52 86 52 52
-3 -1 10 12 4 5 22 43 77 87 103 111 89 60 46 44 39 38 61 114 97 117 69 42 60 94 141 47 52 96 37 -1 -5 7 15 19 37 47 15 33 90 89 70
21 15 25 41 50 43 63 75 74 66 54 69 76 72 49 22 20 9 27 49 51 63 37 82 92 81 143 154 67 88 63 16 -20 -15 2 41 21 26 1 16 52 60 56
15 24 36 46 46 48 47 50 49 47 50 53 61 56 50 11 22 23 18 28 51 64 89 74 69 112 84 48 152 176 -2 -9 22 -9 -27 39 41 46 37 16 38 51 55
35 46 22 40 34 36 27 27 26 40 54 64 71 72 74 87 84 89 123 112 96 69 64 62 60 63 98 120 96 -25 -6 -43 33 29 7 49 42 71 37 35 41 57 58
-7 52 7 21 4 9 20 21 28 41 59 59 74 91 85 96 101 118 116 108 119 127 125 103 68 70 90 85 89 80 20 29 49 74 108 100 91 72 38 30 40 51 64
134 86 60 51 19 5 -3 0 16 39 61 64 78 87 85 69 62 72 85 92 95 118 131 138 142 130 117 105 126 141 115 74 73 80 129 121 118 61 50 47 38 47 82
171 142 134 145 93 61 83 60 67 78 86 64 53 75 73 37 47 54 67 77 90 104 136 154 179 185 127 103 84 99 148 163 152 131 100 106 145 98 53 47 47 59 77
276 232 114 92 101 90 129 127 128 92 78 50 64 73 65 80 68 55 60 70 72 70 74 95 112 119 101 62 65 79 146 148 147 160 147 92 83 76 54 45 54 60 71
172 173 126 79 45 76 93 115 122 111 87 104 130 113 101 97 100 109 89 85 80 73 53 56 50 28 39 87 114 175 198 156 147 119 117 158 101 63 53 57 61 72 71
180 140 108 85 81 95 110 135 146 130 161 148 129 138 120 122 121 150 133 116 94 84 65 45 49 45 53 51 69 105 76 80 62 73 118 100 98 101 92 60 60 60 67
187 145 145 112 113 96 110 137 167 198 188 186 170 164 180 162 141 147 132 127 137 111 100 68 52 41 39 42 50 62 72 92 -97 87 93 153 100 67 87 83 63 47 44
154 204 186 141 117 86 111 128 158 191 188 217 207 167 202 189 185 171 159 139 169 160 147 123 99 80 57 44 39 45 43 13 47 73 46 48 69 106 52 60 70 70 58
125 217 201 124 117 104 139 154 148 161 190 229 225 218 230 188 186 218 218 235 168 144 124 117 113 102 94 76 59 51 21 8 9 20 47 77 99 74 111 99 73 51 82
283 292 215 148 143 132 154 163 165 166 182 196 205 200 183 178 169 210 223 207 193 195 162 147 134 122 98 83 74 63 65 66 45 24 26 50 83 88 123 105 149 150 88
408 368 299 244 210 153 169 189 174 216 224 183 239 198 150 160 178 218 218 173 161 152 151 142 119 93 86 81 75 80 75 56 47 46 41 40 71 89 132 137 86 70 60
397 347 304 241 188 174 180 178 222 249 233 209 261 275 212 171 150 183 193 162 137 135 153 116 95 76 60 58 56 63 73 62 96 80 55 66 68 56 91 120 123 82 40
281 237 200 190 141 166 182 195 190 209 179 173 189 223 276 243 163 139 178 194 178 189 134 88 71 42 50 61 82 87 29 31 35 98 86 101 95 87 55 87 145 165 155
151 144 135 117 116 138 185 184 203 183 160 187 172 230 276 300 232 218 189 209 241 229 206 163 123 87 79 67 46 30 13 16 -7 50 79 134 128 91 91 90 43 93 105
110 132 133 92 104 159 210 247 242 230 227 249 240 256 305 323 255 242 209 197 219 255 267 211 155 112 89 92 61 44 35 11 -10 -27 12 47 69 80 111 102 42 4 24
83 143 106 111 102 100 176 300 305 305 302 307 281 241 258 259 274 242 195 214 268 319 417 358 301 197 128 106 78 82 79 52 -9 -35 -47 -29 11 20 52 72 39 32 -21
200 151 112 125 132 121 170 236 297 320 327 313 288 274 260 266 260 255 347 442 458 372 354 307 264 254 157 109 94 78 69 59 33 12 -45 -59 -38 3 39 33 14 -36 -35
168 131 108 148 177 190 236 256 328 346 349 416 431 461 420 458 521 566 550 461 378 309 353 390 334 294 210 105 83 98 97 87 69 36 15 -6 -40 -57 -18 14 29 29 -3

GFSSE_con_3kmhel_006.txt.gz
Helicity
-23 -11 7 34 72 54 61 88 70 39 34 71 82 129 138 139 147 166 184 153 146 107 95 87 72 89 94 104 78 58 51 60 46 24 -0 -4 15 34 29 27 28 43 77
-25 -16 3 10 22 56 74 51 83 66 64 51 65 127 142 126 118 97 92 95 119 76 80 123 222 173 178 161 154 74 57 39 31 15 13 10 23 26 33 38 40 44 94
-0 -15 -0 22 29 52 86 85 98 99 98 69 53 99 96 89 81 75 78 84 108 92 137 153 259 243 208 326 260 157 79 34 22 10 7 23 22 28 34 37 33 44 70
8 -11 6 12 42 54 60 63 62 82 90 85 69 72 67 50 49 54 85 99 86 76 133 166 178 156 165 92 80 59 45 51 33 26 22 26 15 20 18 49 60 54 53
7 -0 7 24 37 47 54 52 67 73 77 62 52 40 27 23 26 43 57 44 43 80 125 110 82 87 56 3 204 120 -36 58 25 24 13 16 30 49 39 37 71 58 49
11 -2 25 49 60 62 51 38 28 50 66 88 70 44 29 15 16 29 51 41 44 45 72 43 80 34 16 128 37 53 46 29 58 29 14 15 22 9 37 32 56 75 51
-5 7 26 40 37 34 26 17 25 45 70 78 87 82 64 57 52 53 51 36 24 55 48 59 38 48 28 17 17 27 35 -11 -32 46 36 18 40 9 23 30 49 67 67
11 8 21 28 27 3 10 18 31 48 69 87 85 89 101 91 78 73 77 44 25 36 43 35 15 48 107 81 71 7 20 -68 49 -2 46 21 43 31 28 40 45 52 64
34 51 37 15 -8 -13 8 27 48 82 109 107 109 114 103 97 95 89 82 72 71 62 50 39 20 18 24 58 46 8 31 -7 -69 -25 54 26 44 39 4 53 49 62 68
82 78 45 31 6 -3 11 28 54 64 93 81 78 81 78 85 70 61 66 55 51 57 68 60 54 58 59 66 74 45 36 45 55 54 59 33 46 68 2 37 41 57 62
101 74 96 101 65 49 67 89 97 86 71 75 62 91 84 67 61 56 51 56 45 53 76 97 108 114 107 81 58 54 36 25 45 49 71 63 72 82 50 39 45 38 43
248 162 130 123 102 105 103 139 84 114 81 66 68 82 68 72 68 73 72 78 85 83 64 46 58 73 65 54 45 50 50 54 66 81 74 65 63 101 79 49 49 43 38
215 171 151 94 81 127 124 101 92 116 95 75 87 100 107 100 94 98 99 101 112 101 90 77 51 30 30 20 31 58 94 96 106 113 120 142 137 82 77 71 61 45 47
201 174 110 64 90 126 107 86 89 118 123 121 110 133 131 126 126 121 121 114 110 104 99 90 90 73 55 45 41 40 47 75 73 97 81 71 110 145 108 76 72 71 64
187 159 111 116 88 122 116 118 147 174 185 182 176 168 161 161 147 126 119 123 123 128 132 124 109 88 67 53 50 47 43 43 59 67 80 68 40 93 112 144 126 86 58
196 188 170 151 101 120 114 104 129 161 201 211 199 200 195 184 163 148 148 141 148 144 139 142 140 122 103 85 65 55 51 45 28 39 60 56 67 65 87 95 112 121 107
212 250 216 164 136 122 127 117 122 132 176 190 185 197 196 191 186 184 187 174 157 154 151 145 127 122 122 107 91 82 71 49 37 -1 20 82 85 71 93 91 87 80 127
305 277 223 216 175 129 110 120 120 132 158 166 160 169 164 155 171 201 225 201 174 158 144 137 139 136 123 109 100 92 71 63 63 55 42 10 21 72 103 118 52 79 90
303 295 263 209 150 131 129 132 153 150 170 164 163 159 149 148 152 167 168 152 162 176 159 143 130 123 109 102 91 80 71 62 48 47 71 74 57 19 74 65 67 85 87
303 237 188 148 131 134 147 152 152 159 169 200 196 193 177 166 137 166 153 141 161 169 155 149 131 110 84 70 66 78 61 48 56 43 67 56 104 107 78 76 58 58 71
240 182 153 126 91 134 119 123 135 155 168 186 199 218 215 203 183 188 179 165 185 197 166 153 149 110 92 61 67 47 65 73 56 54 18 48 67 107 163 109 73 12 26
133 116 91 89 68 89 137 142 175 208 200 211 194 221 239 254 263 258 243 224 232 256 258 248 228 214 170 127 83 47 35 29 55 42 62 53 44 49 78 133 135 104 34
133 129 95 107 87 95 103 133 172 245 264 262 245 264 283 311 329 326 304 306 275 286 316 325 372 349 282 236 199 113 30 24 -8 -11 7 25 19 33 47 47 98 135 84
100 103 90 126 117 89 131 185 250 287 309 312 330 358 312 337 340 364 338 332 324 356 445 539 543 478 370 304 282 197 159 88 29 -21 -12 6 -4 -8 13 39 47 84 140
82 96 116 152 134 114 150 194 269 289 351 332 349 345 343 382 420 418 430 491 555 589 589 505 390 452 355 305 344 178 139 92 52 64 16 -7 -3 -19 -22 -18 -3 43 103
219 187 177 189 185 164 136 122 251 254 286 327 290 348 421 508 516 431 571 668 673 658 694 645 545 383 264 336 381 161 113 93 70 75 71 32 -7 -15 -20 -2 29 42 65

GFSSE_con_3kmhel_009.txt.gz
Helicity
-25 -17 -29 -13 9 7 47 48 63 127 90 96 103 88 121 163 180 175 146 97 51 41 72 73 99 113 169 192 197 201 127 110 60 31 15 17 24 19 25 39 35 41 37
-12 -19 -17 -9 16 42 59 63 63 91 98 81 92 89 79 93 102 109 90 43 122 149 123 115 106 138 241 273 211 163 144 88 45 39 19 19 24 29 41 42 33 37 34
-32 -10 -5 24 10 24 44 47 60 99 73 62 68 71 57 57 61 61 83 153 178 145 75 56 68 178 209 189 152 110 90 87 27 6 11 26 34 19 25 35 33 34 27
-18 16 -27 20 9 13 47 58 64 81 73 58 51 43 42 40 47 60 105 140 122 61 44 47 45 76 124 159 125 72 117 141 76 45 27 20 15 5 4 12 22 31 19
-2 -4 -4 30 19 13 40 53 65 75 72 61 44 37 30 27 45 74 70 79 76 61 52 68 46 37 112 127 50 42 20 144 22 13 49 28 21 13 -5 2 -13 11 40
4 5 7 11 18 23 22 27 30 36 43 40 45 57 45 37 44 60 56 51 64 54 44 23 16 40 47 50 45 98 84 87 19 -3 -32 52 28 21 4 -0 3 31 68
-15 -21 5 26 16 11 26 32 38 41 45 58 62 47 56 64 67 60 47 29 23 31 38 31 32 34 40 61 40 67 61 105 64 54 -44 65 41 52 17 -0 18 22 50
-0 11 7 13 18 4 11 27 37 51 67 76 75 67 67 63 66 55 39 26 20 15 18 19 19 36 45 22 23 19 54 82 79 50 38 43 45 54 54 11 25 29 52
14 25 13 9 -3 10 20 55 71 77 86 83 66 61 61 65 62 53 44 40 21 6 4 3 -1 3 21 47 64 62 63 60 69 44 81 71 48 52 26 2 26 25 40
27 33 30 16 30 39 40 55 74 69 69 60 45 57 56 53 56 55 47 39 40 38 33 30 39 37 53 62 52 73 82 73 56 59 50 50 67 74 52 -6 23 23 37
36 72 51 63 81 59 72 75 59 76 54 46 40 46 46 38 46 45 48 61 71 77 69 63 77 83 78 67 48 36 15 24 43 38 43 76 85 75 60 28 22 16 23
91 90 93 100 78 70 68 80 43 53 66 70 65 81 67 52 46 60 68 76 74 79 73 62 66 75 57 38 28 22 -8 -22 -50 -8 24 81 98 126 106 76 66 38 18
156 134 114 77 69 44 46 79 66 66 67 80 79 86 84 79 73 77 91 88 87 89 77 79 73 71 73 51 39 30 36 49 35 11 30 81 107 160 177 138 75 54 48
217 147 135 119 85 62 103 102 85 86 86 90 87 98 115 111 106 106 108 101 96 92 90 92 92 76 72 72 61 54 56 54 50 50 40 60 96 133 149 123 114 79 60
195 187 177 166 118 115 125 130 109 94 111 138 140 111 115 125 120 123 113 110 108 124 125 120 112 102 90 79 62 59 65 57 57 51 39 41 43 51 101 112 100 103 99
162 172 160 130 114 137 111 119 123 135 155 170 159 138 129 129 126 129 125 126 127 127 122 117 110 109 111 105 94 78 61 62 59 61 74 64 60 37 39 58 98 90 97
168 182 169 145 148 123 99 101 118 124 150 167 166 149 138 154 145 139 139 139 126 124 113 115 109 104 103 98 99 94 78 59 49 58 52 46 80 71 57 34 37 87 85
214 221 174 151 146 120 89 88 101 115 135 132 142 151 142 142 140 151 153 141 135 127 125 119 105 96 92 90 88 74 55 48 48 45 35 37 9 26 83 125 102 80 115
234 247 183 140 142 104 82 79 89 100 113 121 149 159 138 147 153 156 147 133 134 135 137 133 120 114 104 105 97 90 85 72 61 65 85 87 74 59 55 111 192 153 89
230 183 147 109 118 109 78 81 82 89 109 141 140 165 158 184 191 185 169 156 169 165 153 158 135 129 120 102 99 83 50 40 66 62 64 79 130 102 85 78 96 169 180
178 145 84 80 71 139 115 94 83 104 134 179 188 163 175 202 220 243 233 211 228 218 196 191 186 164 151 138 133 105 62 44 38 45 30 37 74 111 110 114 90 83 105
107 84 56 67 90 86 113 104 113 143 120 172 236 247 248 259 254 294 307 296 306 300 269 278 298 285 227 221 192 166 129 106 89 45 18 13 36 62 91 95 116 79 74
81 79 92 102 102 114 130 156 171 206 174 205 215 293 315 363 332 349 373 383 375 414 387 391 412 406 356 354 299 266 228 159 75 21 37 -20 8 22 20 44 67 71 68
30 65 67 92 111 130 160 207 205 221 203 235 253 260 271 329 334 359 381 435 435 474 417 422 434 489 553 550 482 446 390 308 143 51 -0 17 -20 24 13 1 27 64 68
80 113 129 136 151 189 192 174 175 190 229 247 247 222 231 268 313 318 357 465 476 434 470 511 557 631 618 655 588 543 432 348 280 113 64 44 -2 -24 -9 6 13 48 97
269 299 333 340 323 288 215 147 107 157 184 208 177 178 206 226 228 282 441 555 625 701 830 628 641 776 731 528 644 572 480 479 365 181 127 111 87 -41 -33 -8 7 18 58

GFSSE_con_3kmhel_012.txt.gz
Helicity
-49 -67 -51 -29 10 -4 31 18 33 72 93 104 129 112 118 126 114 108 76 60 77 100 88 85 70 83 66 114 145 157 131 85 65 96 85 53 51 48 67 62 53 51 35
-30 -62 -68 -55 -3 32 36 31 61 47 90 83 84 70 81 86 93 85 115 176 153 115 105 112 103 72 103 110 107 129 100 66 55 32 35 27 36 45 39 67 71 51 33
-22 -42 -51 -29 13 47 30 50 36 58 53 53 52 59 58 63 77 106 171 170 154 125 92 78 41 62 62 79 66 55 94 81 82 77 114 66 24 28 32 36 53 50 37
-30 -24 -26 -18 7 2 8 36 35 55 52 50 59 64 57 63 82 134 131 133 131 98 57 34 10 14 40 74 86 125 91 75 58 59 151 117 86 21 16 13 16 26 35
-24 -22 -14 -4 1 3 17 21 31 44 46 51 42 30 34 56 80 91 77 74 73 64 54 61 70 51 46 50 89 118 134 121 108 101 129 54 90 50 22 6 7 6 21
-29 -18 -10 1 1 1 6 21 29 40 53 55 54 44 48 56 61 61 57 63 64 66 62 59 62 66 61 69 65 55 64 74 94 81 88 49 55 45 29 18 7 6 11
-18 -33 -30 -14 -7 -5 20 35 48 58 72 62 47 46 61 64 43 31 42 48 54 56 58 71 78 67 70 65 73 90 104 128 116 89 85 98 73 20 20 32 3 5 6
-12 -41 -27 -13 2 26 32 41 49 61 60 41 34 38 34 35 30 32 35 36 37 37 38 45 46 59 69 71 71 59 59 59 69 67 69 86 77 53 30 29 17 12 6
2 12 -3 -2 5 17 20 25 42 47 50 37 24 18 36 41 26 12 14 23 39 45 54 55 51 29 48 79 113 130 116 121 112 102 93 73 132 63 39 40 10 16 19
18 4 3 5 19 33 30 41 37 39 33 26 23 40 58 56 44 33 26 26 34 46 52 49 39 39 55 71 77 103 113 114 103 84 68 93 136 141 96 63 18 4 25
16 1 10 28 50 61 51 43 27 25 25 29 34 52 60 51 43 38 37 49 58 64 62 62 64 64 67 68 68 62 76 70 76 71 58 88 94 134 150 106 91 19 20
38 11 33 69 74 67 44 55 54 32 40 43 51 56 57 57 53 52 52 57 58 59 68 79 77 71 68 55 48 47 18 17 40 62 61 88 95 109 113 133 126 93 48
60 55 80 99 82 57 41 53 61 64 62 54 57 66 63 60 61 65 64 68 69 75 73 77 73 64 60 55 55 50 36 25 13 19 57 103 87 87 94 106 130 124 96
103 88 93 86 71 53 42 64 79 84 81 73 70 76 78 79 79 76 81 81 85 86 82 82 77 66 66 63 59 56 62 64 58 49 45 75 106 115 109 106 116 136 133
115 118 101 92 73 63 62 84 102 92 98 101 106 109 107 94 93 97 92 92 90 90 90 88 92 89 72 56 56 63 61 59 69 72 65 78 79 89 98 111 122 107 110
122 124 108 109 105 101 89 95 76 81 93 118 126 120 114 117 121 124 117 112 110 105 95 89 81 82 87 75 64 53 48 53 48 53 71 94 112 98 74 90 128 110 98
151 136 139 128 110 103 101 91 76 75 95 104 101 99 105 118 127 133 131 127 120 124 119 112 102 95 88 89 88 79 74 61 38 36 38 49 93 152 127 93 107 103 136
179 168 138 115 98 86 83 60 53 63 77 84 89 113 117 121 128 142 153 142 135 150 152 146 128 117 107 98 92 88 75 57 36 35 23 35 23 47 107 158 157 142 173
146 166 143 83 55 75 66 59 73 71 78 77 90 133 147 153 154 174 184 163 159 174 175 173 158 165 151 119 95 88 84 76 67 59 55 37 68 44 48 113 173 194 212
135 142 129 67 49 65 87 114 118 96 93 92 79 116 156 202 210 236 224 206 217 213 194 198 176 174 167 148 138 118 108 98 94 59 58 60 51 51 59 82 94 138 200
106 121 93 81 76 97 120 135 117 115 108 124 122 130 184 221 248 277 295 278 288 281 234 242 239 199 174 182 185 164 149 122 113 93 73 62 42 14 58 66 43 61 119
33 54 58 54 89 116 175 196 169 144 140 124 137 128 183 239 261 302 328 353 369 358 312 288 330 299 250 267 245 235 179 162 179 128 121 73 7 1 54 71 85 84 78
9 34 65 77 98 149 165 167 174 169 168 166 145 173 182 215 203 253 282 332 379 433 399 368 387 410 344 380 343 302 257 204 189 191 166 117 44 18 35 47 59 90 115
52 64 64 86 132 183 196 190 180 165 162 171 183 205 175 157 157 186 235 282 311 376 420 463 471 491 489 472 462 441 418 389 295 210 193 156 111 47 11 16 27 48 87
124 160 181 210 256 241 203 159 153 151 177 200 199 174 167 158 137 133 164 201 282 364 396 432 495 535 627 601 650 620 515 559 475 298 233 206 106 5 -46 -5 28 46 58
211 248 256 254 238 222 159 120 98 104 144 118 130 140 132 137 129 133 152 233 322 411 487 647 807 878 822 849 806 702 718 706 708 620 406 233 107 -37 -19 6 21 53 54